Floro, Norway

4:07 PM CET on November 13, 2019 (GMT +0100)
Floro

Weather History for ENFL - October, 2019

Change the Weather History Date:

Tuesday, October 22, 2019

  Actual Average Record
Temperature  
Mean Temperature 46 °F -  
Max Temperature 50 °F 45 °F 57 °F (2017)
Min Temperature 41 °F 39 °F 32 °F (2003)
Degree Days  
Heating Degree Days 20    
Moisture  
Dew Point 43 °F    
Average Humidity 90    
Maximum Humidity 100    
Minimum Humidity 76    
Precipitation  
Precipitation 0.00 in - - ()
Sea Level Pressure  
Sea Level Pressure 29.72 in    
Wind  
Wind Speed 24 mph ()    
Max Wind Speed 38 mph    
Max Gust Speed 53 mph    
Visibility 4.3 miles    
Events Rain    
Averages and records for this station are not official NWS values.
T = Trace of Precipitation, MM = Missing Value Source: Averaged Metar Reports

Daily Weather History Graph

Daily Weather History Graph

Search for Another Location

Airport or City:

Astronomy

Oct. 22, 2019 Rise Set
Actual Time 8:40 AM CEST 6:06 PM CEST
Civil Twilight 7:55 AM CEST 6:52 PM CEST
Nautical Twilight 7:04 AM CEST 7:43 PM CEST
Astronomical Twilight 6:13 AM CEST 8:33 PM CEST
Moon No Moon Rise 5:24 PM CEST (10/22)
Length of Visible Light 10h 57m
Length of Day
9h 26m
Last Quarter, 40% of the Moon is Illuminated
Oct 22
Last Quarter
Oct 28
New
Nov 4
First Quarter
Nov 12
Full
Nov 19
Last Quarter

Hourly Weather History & Observations

Time (CEST) Temp. Windchill Dew Point Humidity Pressure Visibility Wind Dir Wind Speed Gust Speed Precip Events Conditions
12:00 AM 46 °F - 42 °F 79% 29.80 in - South 33.6 mph - -  
12:20 AM 46.4 °F 36.9 °F 41.0 °F 81% 29.77 in 3.7 mi South 32.2 mph 43.7 mph N/A Rain Rain
12:50 AM 46.4 °F 36.1 °F 42.8 °F 87% 29.74 in 6.2 mi South 38.0 mph - N/A Rain Light Rain
1:00 AM 46 °F - 42 °F 81% 29.78 in - South 35.8 mph - -  
1:20 AM 46.4 °F 36.9 °F 42.8 °F 87% 29.77 in - South 32.2 mph 43.7 mph N/A Rain Rain
1:50 AM 46.4 °F 38.1 °F 44.6 °F 93% 29.77 in 2.8 mi SSW 24.2 mph 36.8 mph N/A Rain Rain
2:00 AM 46 °F - 44 °F 88% 29.77 in - SSW 26.8 mph - -  
2:20 AM 46.4 °F 37.2 °F 42.8 °F 87% 29.74 in - SSW 29.9 mph 42.6 mph N/A Rain Rain
2:50 AM 46.4 °F 36.3 °F 42.8 °F 87% 29.74 in 2.5 mi South 36.8 mph - N/A Rain Rain
3:00 AM 46 °F - 43 °F 86% 29.73 in - SSW 33.6 mph - -  
3:20 AM 46.4 °F 36.7 °F 42.8 °F 87% 29.71 in - South 33.4 mph 46.0 mph N/A Rain Rain
3:50 AM 46.4 °F 36.4 °F 42.8 °F 87% 29.71 in 3.1 mi South 35.7 mph - N/A Rain Rain
4:00 AM 46 °F - 43 °F 87% 29.72 in - South 35.8 mph - -  
4:20 AM 46.4 °F 36.3 °F 42.8 °F 87% 29.68 in - South 36.8 mph - N/A Rain Light Rain
4:50 AM 46.4 °F 36.1 °F 42.8 °F 87% 29.65 in 4.3 mi South 38.0 mph - N/A Rain Light Rain
5:00 AM 47 °F - 44 °F 84% 29.67 in - South 38.0 mph - -  
5:20 AM 46.4 °F 36.1 °F 44.6 °F 93% 29.65 in 3.1 mi South 38.0 mph 49.5 mph N/A Rain Light Rain
5:50 AM 46.4 °F 36.1 °F 44.6 °F 93% 29.65 in 2.5 mi South 38.0 mph - N/A Rain Heavy Rain
6:00 AM 47 °F - 45 °F 92% 29.67 in - South 33.6 mph - -  
6:20 AM 48.2 °F - 46.4 °F 93% 29.65 in 3.1 mi South 34.5 mph 46.0 mph N/A Rain Heavy Rain
6:50 AM 48.2 °F - 46.4 °F 93% 29.62 in 1.9 mi South 33.4 mph 47.2 mph N/A Rain Heavy Rain
7:00 AM 48 °F - 46 °F 91% 29.64 in - South 33.6 mph - -  
7:20 AM 48.2 °F - 46.4 °F 93% 29.62 in 1.9 mi South 35.7 mph 52.9 mph N/A Rain Heavy Rain
7:50 AM 48.2 °F - 46.4 °F 93% 29.62 in 1.9 mi South 36.8 mph 48.3 mph N/A Rain Rain
8:20 AM 48.2 °F - 46.4 °F 93% 29.62 in 2.5 mi SSW 34.5 mph 49.5 mph N/A Rain Rain
8:50 AM 48.2 °F - 48.2 °F 100% 29.62 in 1.9 mi SSW 28.8 mph 41.4 mph N/A Rain Rain
9:00 AM 49 °F - 48 °F 94% 29.64 in - SSW 29.1 mph - -  
9:20 AM 50.0 °F - 48.2 °F 94% 29.62 in 1.9 mi SSW 26.5 mph 38.0 mph N/A Rain Rain
9:50 AM 50.0 °F - 48.2 °F 94% 29.62 in 1.9 mi SSW 27.6 mph 39.1 mph N/A Rain Rain
10:20 AM 50.0 °F - 48.2 °F 94% 29.62 in 1.6 mi SSW 25.3 mph 38.0 mph N/A Rain Rain
10:50 AM 50.0 °F - 48.2 °F 94% 29.65 in 1.9 mi SSW 25.3 mph 38.0 mph N/A Rain Rain
11:00 AM 50 °F - 49 °F 96% 29.66 in - SW 24.6 mph - -  
11:20 AM 48.2 °F - 48.2 °F 100% 29.68 in 3.1 mi West 16.1 mph - N/A Rain Light Rain
11:50 AM 48.2 °F - 48.2 °F 100% 29.68 in 3.7 mi West 12.7 mph - N/A Rain Light Rain
12:00 PM 48 °F - 47 °F 96% 29.70 in - West 11.2 mph - -  
12:20 PM 48.2 °F - 46.4 °F 93% 29.68 in 4.3 mi WSW 15.0 mph - N/A Rain Light Rain
12:50 PM 48.2 °F - 48.2 °F 100% 29.71 in 2.8 mi West 15.0 mph - N/A Rain Light Rain
1:00 PM 47 °F - 46 °F 94% 29.73 in - WNW 13.4 mph - -  
1:20 PM 46.4 °F 40.7 °F 44.6 °F 93% 29.71 in 3.1 mi WNW 12.7 mph - N/A Rain Light Rain
1:50 PM 46.4 °F 41.1 °F 44.6 °F 93% 29.71 in 3.7 mi West 11.5 mph - N/A Rain Light Rain
2:20 PM 46.4 °F 41.1 °F 42.8 °F 87% 29.74 in 5.0 mi WNW 11.5 mph - N/A Rain Light Rain
2:50 PM 44.6 °F 38.1 °F 42.8 °F 93% 29.74 in 5.6 mi WNW 13.8 mph - N/A Rain Light Rain
3:00 PM 45 °F - 40 °F 78% 29.78 in - WNW 13.4 mph - -  
3:20 PM 44.6 °F 36.9 °F 37.4 °F 76% 29.77 in 6.2 mi WNW 18.4 mph 29.9 mph N/A Rain Light Rain
3:50 PM 42.8 °F 37.0 °F 37.4 °F 81% 29.80 in 5.6 mi WNW 10.4 mph - N/A Rain Rain
4:00 PM 42 °F - 37 °F 76% 29.81 in - West 6.7 mph - -  
4:20 PM 42.8 °F 39.3 °F 37.4 °F 81% 29.80 in 6.2 mi West 5.8 mph - N/A Rain Light Rain
4:50 PM 42.8 °F 40.1 °F 37.4 °F 81% 29.80 in 5.6 mi ENE 4.6 mph - N/A Rain Rain
5:20 PM 41.0 °F 38.0 °F 39.2 °F 93% 29.77 in 6.2 mi East 4.6 mph - N/A Rain Light Rain
5:50 PM 41.0 °F 35.2 °F 39.2 °F 93% 29.77 in 6.2 mi ESE 9.2 mph - N/A Rain Light Rain
6:20 PM 41.0 °F 34.3 °F 37.4 °F 87% 29.77 in 5.6 mi ESE 11.5 mph - N/A Rain Light Rain
6:50 PM 41.0 °F 35.2 °F 37.4 °F 87% 29.80 in 5.6 mi ESE 9.2 mph - N/A Rain Light Rain
7:20 PM 41.0 °F 35.2 °F 39.2 °F 93% 29.80 in 5.6 mi East 9.2 mph - N/A Rain Light Rain
7:50 PM 41.0 °F 33.9 °F 39.2 °F 93% 29.77 in 6.2 mi East 12.7 mph - N/A   Mostly Cloudy
8:00 PM 42 °F - 39 °F 87% 29.79 in - ESE 11.2 mph - -  
8:20 PM 41.0 °F 34.7 °F 39.2 °F 93% 29.77 in 6.2 mi ESE 10.4 mph - N/A   Mostly Cloudy
8:50 PM 42.8 °F 37.5 °F 39.2 °F 87% 29.77 in 6.2 mi ESE 9.2 mph - N/A   Mostly Cloudy
9:00 PM 43 °F - 40 °F 84% 29.78 in - ESE 8.9 mph - -  
9:20 PM 42.8 °F 36.6 °F 39.2 °F 87% 29.77 in 6.2 mi East 11.5 mph - N/A Rain Light Rain
9:50 PM 42.8 °F 35.4 °F 41.0 °F 93% 29.74 in 6.2 mi East 15.0 mph - N/A Rain Light Rain
10:20 PM 42.8 °F 35.4 °F 41.0 °F 93% 29.74 in 6.2 mi ESE 15.0 mph - N/A Rain Light Rain
10:50 PM 42.8 °F 35.4 °F 41.0 °F 93% 29.74 in 5.6 mi East 15.0 mph - N/A Rain Light Rain
11:00 PM 43 °F - 41 °F 90% 29.75 in - East 13.4 mph - -  
11:20 PM 42.8 °F 35.4 °F 41.0 °F 93% 29.74 in 5.6 mi East 15.0 mph - N/A Rain Light Rain
11:50 PM 42.8 °F 35.8 °F 41.0 °F 93% 29.74 in 6.2 mi East 13.8 mph - N/A Rain Light Rain